ZKJEE NZAA-NZNP

Flight info

Callsign ZKJEE
Flight time 0h 49m
Altitude 10000
Route IGBAT Y832 EKALI Y244 DOBBO
Aircraft DHC6/L-SDFGR/G

Departure

Time 2026-04-22 00:58
Airport Auckland International Airport (NZAA)

Arrival

Time 2026-04-22 01:47
Airport New Plymouth Airport (NZNP)
Time Latitude Longitude Altitude Speed Heading
2026-04-22 00:46 -37.00300 174.80354 32 ft 0 kts 72°
2026-04-22 00:55 -37.00300 174.80355 32 ft 0 kts 72°
2026-04-22 00:55 -37.00290 174.80391 32 ft 15 kts 72°
2026-04-22 00:56 -37.00262 174.80581 32 ft 9 kts 216°
2026-04-22 00:56 -37.00349 174.80552 32 ft 23 kts 165°
2026-04-22 00:56 -37.00514 174.80607 32 ft 20 kts 188°
2026-04-22 00:56 -37.00638 174.80561 32 ft 16 kts 213°
2026-04-22 00:57 -37.00692 174.80473 32 ft 4 kts 250°
2026-04-22 00:57 -37.00756 174.80249 32 ft 68 kts 250°
2026-04-22 00:57 -37.00982 174.79450 39 ft 119 kts 250°
2026-04-22 00:57 -37.01262 174.78463 320 ft 122 kts 250°
2026-04-22 00:58 -37.01547 174.77444 667 ft 127 kts 251°
2026-04-22 00:58 -37.01955 174.76474 1024 ft 128 kts 222°
2026-04-22 00:58 -37.02773 174.76107 1368 ft 126 kts 189°
2026-04-22 00:58 -37.03637 174.75943 1720 ft 126 kts 187°
2026-04-22 00:59 -37.04521 174.75789 2059 ft 130 kts 189°
2026-04-22 00:59 -37.05432 174.75618 2414 ft 133 kts 193°
2026-04-22 00:59 -37.06340 174.75428 2791 ft 132 kts 189°
2026-04-22 00:59 -37.07239 174.75236 3137 ft 132 kts 190°
2026-04-22 01:00 -37.08144 174.75036 3486 ft 133 kts 191°
2026-04-22 01:00 -37.09053 174.74827 3835 ft 133 kts 192°
2026-04-22 01:00 -37.09982 174.74605 4192 ft 134 kts 193°
2026-04-22 01:00 -37.10896 174.74383 4538 ft 135 kts 194°
2026-04-22 01:01 -37.11806 174.74157 4880 ft 137 kts 194°
2026-04-22 01:01 -37.12758 174.73911 5236 ft 138 kts 194°
2026-04-22 01:01 -37.13710 174.73667 5589 ft 140 kts 194°
2026-04-22 01:01 -37.14661 174.73425 5937 ft 141 kts 194°
2026-04-22 01:02 -37.15615 174.73180 6283 ft 142 kts 195°
2026-04-22 01:02 -37.16594 174.72917 6635 ft 144 kts 195°
2026-04-22 01:02 -37.17568 174.72662 6983 ft 145 kts 194°
2026-04-22 01:02 -37.18567 174.72400 7336 ft 146 kts 194°
2026-04-22 01:03 -37.19566 174.72133 7687 ft 147 kts 194°
2026-04-22 01:03 -37.20563 174.71873 8035 ft 148 kts 192°
2026-04-22 01:03 -37.21581 174.71651 8385 ft 149 kts 191°
2026-04-22 01:03 -37.22606 174.71429 8736 ft 150 kts 191°
2026-04-22 01:04 -37.23633 174.71202 9086 ft 150 kts 191°
2026-04-22 01:04 -37.24665 174.70984 9435 ft 151 kts 191°
2026-04-22 01:04 -37.25695 174.70767 9778 ft 151 kts 190°
2026-04-22 01:04 -37.26782 174.70533 9947 ft 159 kts 191°
2026-04-22 01:05 -37.27924 174.70286 10002 ft 173 kts 191°
2026-04-22 01:05 -37.29125 174.70025 10006 ft 182 kts 191°
2026-04-22 01:05 -37.30408 174.69746 10004 ft 187 kts 191°
2026-04-22 01:05 -37.31704 174.69462 10003 ft 191 kts 191°
2026-04-22 01:06 -37.33018 174.69173 10001 ft 193 kts 191°
2026-04-22 01:06 -37.34312 174.68888 10000 ft 194 kts 191°
2026-04-22 01:06 -37.35665 174.68590 10000 ft 195 kts 191°
2026-04-22 01:06 -37.36990 174.68298 10000 ft 195 kts 191°
2026-04-22 01:07 -37.38335 174.68001 10000 ft 195 kts 191°
2026-04-22 01:07 -37.39661 174.67710 9999 ft 195 kts 191°
2026-04-22 01:07 -37.40558 174.67513 9999 ft 195 kts 191°
2026-04-22 01:07 -37.42350 174.67123 9998 ft 196 kts 191°
2026-04-22 01:08 -37.43689 174.66834 9997 ft 196 kts 191°
2026-04-22 01:08 -37.44596 174.66639 9996 ft 196 kts 191°
2026-04-22 01:08 -37.46374 174.66256 9991 ft 196 kts 191°
2026-04-22 01:08 -37.47280 174.66060 9991 ft 196 kts 191°
2026-04-22 01:09 -37.48623 174.65769 9991 ft 196 kts 191°
2026-04-22 01:09 -37.49961 174.65478 9991 ft 196 kts 191°
2026-04-22 01:09 -37.51311 174.65177 9991 ft 196 kts 192°
2026-04-22 01:09 -37.52650 174.64880 9991 ft 196 kts 192°
2026-04-22 01:10 -37.54012 174.64575 9991 ft 196 kts 192°
2026-04-22 01:10 -37.55359 174.64275 9991 ft 196 kts 192°
2026-04-22 01:10 -37.56678 174.63978 9991 ft 196 kts 192°
2026-04-22 01:10 -37.58037 174.63631 9991 ft 196 kts 194°
2026-04-22 01:11 -37.59344 174.63241 9991 ft 196 kts 195°
2026-04-22 01:11 -37.60682 174.62834 9990 ft 196 kts 195°
2026-04-22 01:11 -37.61995 174.62434 9991 ft 196 kts 197°
2026-04-22 01:11 -37.63318 174.62032 9984 ft 195 kts 197°
2026-04-22 01:12 -37.64648 174.61629 9983 ft 195 kts 197°
2026-04-22 01:12 -37.65964 174.61229 9983 ft 195 kts 197°
2026-04-22 01:12 -37.67278 174.60817 9983 ft 195 kts 197°
2026-04-22 01:12 -37.68585 174.60398 9987 ft 195 kts 197°
2026-04-22 01:13 -37.69896 174.59979 9988 ft 195 kts 197°
2026-04-22 01:13 -37.71217 174.59558 9996 ft 195 kts 196°
2026-04-22 01:13 -37.72532 174.59154 10000 ft 195 kts 195°
2026-04-22 01:13 -37.73870 174.58743 10001 ft 195 kts 196°
2026-04-22 01:14 -37.75186 174.58321 10001 ft 196 kts 196°
2026-04-22 01:14 -37.76511 174.57911 10001 ft 196 kts 196°
2026-04-22 01:14 -37.77843 174.57487 10001 ft 196 kts 196°
2026-04-22 01:14 -37.79169 174.57074 10001 ft 196 kts 196°
2026-04-22 01:15 -37.80491 174.56659 9998 ft 196 kts 197°
2026-04-22 01:15 -37.81821 174.56245 9997 ft 195 kts 197°
2026-04-22 01:15 -37.83139 174.55838 9996 ft 195 kts 197°
2026-04-22 01:15 -37.84423 174.55431 9996 ft 195 kts 197°
2026-04-22 01:16 -37.85772 174.55002 9996 ft 195 kts 197°
2026-04-22 01:16 -37.87092 174.54586 9997 ft 195 kts 197°
2026-04-22 01:16 -37.88394 174.54167 9997 ft 195 kts 197°
2026-04-22 01:16 -37.89715 174.53752 9998 ft 195 kts 197°
2026-04-22 01:17 -37.91024 174.53341 9998 ft 195 kts 197°
2026-04-22 01:17 -37.92346 174.52916 9998 ft 195 kts 197°
2026-04-22 01:17 -37.93667 174.52497 9998 ft 195 kts 197°
2026-04-22 01:17 -37.95000 174.52069 9996 ft 194 kts 197°
2026-04-22 01:18 -37.96283 174.51659 10002 ft 194 kts 197°
2026-04-22 01:18 -37.97601 174.51238 10009 ft 193 kts 198°
2026-04-22 01:18 -37.98869 174.50711 10014 ft 189 kts 204°
2026-04-22 01:18 -38.00077 174.50113 10016 ft 187 kts 205°
2026-04-22 01:19 -38.01280 174.49499 10019 ft 185 kts 205°
2026-04-22 01:19 -38.02465 174.48887 10023 ft 183 kts 205°
2026-04-22 01:19 -38.03637 174.48274 10025 ft 182 kts 205°
2026-04-22 01:19 -38.04796 174.47667 10026 ft 181 kts 205°
2026-04-22 01:20 -38.05977 174.47064 10026 ft 180 kts 204°
2026-04-22 01:20 -38.07135 174.46477 10027 ft 180 kts 204°
2026-04-22 01:20 -38.08320 174.45873 10006 ft 180 kts 204°
2026-04-22 01:20 -38.09477 174.45279 10002 ft 179 kts 204°
2026-04-22 01:21 -38.10626 174.44686 10001 ft 179 kts 204°
2026-04-22 01:21 -38.11797 174.44077 10002 ft 178 kts 204°
2026-04-22 01:21 -38.12937 174.43481 10003 ft 178 kts 204°
2026-04-22 01:21 -38.14081 174.42879 10004 ft 178 kts 204°
2026-04-22 01:22 -38.15222 174.42278 10008 ft 177 kts 204°
2026-04-22 01:22 -38.16356 174.41693 10010 ft 177 kts 204°
2026-04-22 01:22 -38.17502 174.41104 10011 ft 177 kts 204°
2026-04-22 01:22 -38.18644 174.40517 10011 ft 177 kts 204°
2026-04-22 01:23 -38.19781 174.39929 10011 ft 177 kts 204°
2026-04-22 01:23 -38.20888 174.39354 10011 ft 177 kts 204°
2026-04-22 01:23 -38.22070 174.38731 10011 ft 177 kts 204°
2026-04-22 01:23 -38.23189 174.38146 10011 ft 177 kts 204°
2026-04-22 01:24 -38.24332 174.37545 10013 ft 177 kts 203°
2026-04-22 01:24 -38.25470 174.36940 10015 ft 176 kts 203°
2026-04-22 01:24 -38.26601 174.36334 10016 ft 176 kts 204°
2026-04-22 01:24 -38.27728 174.35728 10008 ft 177 kts 203°
2026-04-22 01:25 -38.28863 174.35135 10002 ft 177 kts 202°
2026-04-22 01:25 -38.29993 174.34545 10000 ft 177 kts 203°
2026-04-22 01:25 -38.31133 174.33943 10000 ft 176 kts 202°
2026-04-22 01:25 -38.32259 174.33353 10001 ft 176 kts 202°
2026-04-22 01:26 -38.33393 174.32749 10011 ft 176 kts 202°
2026-04-22 01:26 -38.34539 174.32152 10015 ft 176 kts 202°
2026-04-22 01:26 -38.35678 174.31687 10018 ft 176 kts 193°
2026-04-22 01:26 -38.36897 174.31384 10020 ft 176 kts 190°
2026-04-22 01:27 -38.38100 174.31121 10021 ft 176 kts 189°
2026-04-22 01:27 -38.39287 174.30854 10019 ft 176 kts 190°
2026-04-22 01:27 -38.40496 174.30563 10004 ft 177 kts 190°
2026-04-22 01:27 -38.41712 174.30263 10003 ft 177 kts 190°
2026-04-22 01:28 -38.42918 174.29960 10003 ft 176 kts 191°
2026-04-22 01:28 -38.44121 174.29657 10003 ft 176 kts 191°
2026-04-22 01:28 -38.45318 174.29337 10003 ft 176 kts 191°
2026-04-22 01:28 -38.46514 174.29021 10003 ft 176 kts 191°
2026-04-22 01:29 -38.47716 174.28707 10003 ft 176 kts 191°
2026-04-22 01:29 -38.48931 174.28380 10002 ft 176 kts 191°
2026-04-22 01:29 -38.50131 174.28065 10003 ft 176 kts 191°
2026-04-22 01:29 -38.51350 174.27725 10002 ft 177 kts 194°
2026-04-22 01:30 -38.52493 174.27177 10006 ft 177 kts 201°
2026-04-22 01:30 -38.53621 174.26538 10005 ft 177 kts 202°
2026-04-22 01:30 -38.54742 174.25887 10005 ft 177 kts 202°
2026-04-22 01:30 -38.55851 174.25221 10005 ft 177 kts 203°
2026-04-22 01:31 -38.56950 174.24550 10005 ft 177 kts 203°
2026-04-22 01:31 -38.58100 174.23861 10005 ft 177 kts 203°
2026-04-22 01:31 -38.59189 174.23201 10005 ft 177 kts 203°
2026-04-22 01:31 -38.60325 174.22522 10005 ft 177 kts 203°
2026-04-22 01:32 -38.61430 174.21846 10005 ft 177 kts 203°
2026-04-22 01:32 -38.62557 174.21172 10005 ft 177 kts 202°
2026-04-22 01:32 -38.63671 174.20498 10005 ft 178 kts 203°
2026-04-22 01:32 -38.64783 174.19829 10005 ft 178 kts 203°
2026-04-22 01:33 -38.65909 174.19141 10005 ft 178 kts 203°
2026-04-22 01:33 -38.67044 174.18459 10005 ft 178 kts 203°
2026-04-22 01:33 -38.68188 174.17752 10005 ft 178 kts 203°
2026-04-22 01:33 -38.69280 174.17078 10005 ft 178 kts 203°
2026-04-22 01:34 -38.70412 174.16388 10005 ft 178 kts 203°
2026-04-22 01:34 -38.71531 174.15702 10005 ft 178 kts 203°
2026-04-22 01:34 -38.72640 174.15020 10004 ft 178 kts 203°
2026-04-22 01:34 -38.73753 174.14339 10001 ft 178 kts 203°
2026-04-22 01:35 -38.74870 174.13652 10000 ft 178 kts 203°
2026-04-22 01:35 -38.75985 174.12976 10001 ft 178 kts 202°
2026-04-22 01:35 -38.77106 174.12297 10066 ft 175 kts 202°
2026-04-22 01:35 -38.78188 174.11640 10084 ft 175 kts 202°
2026-04-22 01:36 -38.79294 174.10971 10088 ft 176 kts 202°
2026-04-22 01:36 -38.80415 174.10288 10089 ft 177 kts 203°
2026-04-22 01:36 -38.81509 174.09602 10089 ft 177 kts 203°
2026-04-22 01:36 -38.82620 174.08919 10089 ft 178 kts 202°
2026-04-22 01:37 -38.83749 174.08223 10089 ft 178 kts 203°
2026-04-22 01:37 -38.84854 174.07536 10089 ft 178 kts 203°
2026-04-22 01:37 -38.85968 174.06833 10089 ft 178 kts 204°
2026-04-22 01:37 -38.87080 174.06145 10089 ft 178 kts 202°
2026-04-22 01:38 -38.87817 174.05691 10048 ft 179 kts 203°
2026-04-22 01:38 -38.88888 174.05005 9787 ft 164 kts 204°
2026-04-22 01:38 -38.89879 174.04363 9529 ft 154 kts 203°
2026-04-22 01:38 -38.90813 174.03772 9276 ft 148 kts 202°
2026-04-22 01:39 -38.91719 174.03202 9022 ft 143 kts 202°
2026-04-22 01:39 -38.92608 174.02649 8768 ft 140 kts 201°
2026-04-22 01:39 -38.93488 174.02115 8515 ft 138 kts 201°
2026-04-22 01:39 -38.94352 174.01591 8265 ft 137 kts 201°
2026-04-22 01:40 -38.95210 174.01068 8014 ft 136 kts 202°
2026-04-22 01:40 -38.96067 174.00540 7762 ft 136 kts 201°
2026-04-22 01:40 -38.96928 174.00009 7508 ft 135 kts 202°
2026-04-22 01:40 -38.97771 173.99492 7259 ft 135 kts 201°
2026-04-22 01:41 -38.98611 173.98972 7009 ft 134 kts 202°
2026-04-22 01:41 -38.99447 173.98459 6759 ft 133 kts 201°
2026-04-22 01:41 -39.00293 173.97998 6501 ft 131 kts 189°
2026-04-22 01:41 -39.01154 173.98204 6261 ft 126 kts 156°
2026-04-22 01:42 -39.01942 173.98700 6012 ft 125 kts 153°
2026-04-22 01:42 -39.02721 173.99204 5759 ft 123 kts 154°
2026-04-22 01:42 -39.03485 173.99668 5510 ft 122 kts 155°
2026-04-22 01:42 -39.04265 174.00114 5258 ft 122 kts 155°
2026-04-22 01:43 -39.05030 174.00547 5010 ft 121 kts 155°
2026-04-22 01:43 -39.05776 174.01046 4749 ft 122 kts 141°
2026-04-22 01:43 -39.06026 174.02087 4480 ft 131 kts 87°
2026-04-22 01:43 -39.05755 174.03205 4253 ft 131 kts 76°
2026-04-22 01:44 -39.05415 174.04301 4002 ft 131 kts 75°
2026-04-22 01:44 -39.05067 174.05373 3754 ft 131 kts 76°
2026-04-22 01:44 -39.04710 174.06460 3502 ft 130 kts 76°
2026-04-22 01:44 -39.04359 174.07520 3254 ft 129 kts 77°
2026-04-22 01:45 -39.04006 174.08582 3003 ft 129 kts 78°
2026-04-22 01:45 -39.03657 174.09615 2784 ft 120 kts 79°
2026-04-22 01:45 -39.03332 174.10572 2516 ft 118 kts 78°
2026-04-22 01:45 -39.02997 174.11591 2183 ft 123 kts 77°
2026-04-22 01:46 -39.02666 174.12569 1937 ft 117 kts 79°
2026-04-22 01:46 -39.02353 174.13474 1696 ft 106 kts 83°
2026-04-22 01:46 -39.02069 174.14329 1431 ft 101 kts 84°
2026-04-22 01:46 -39.01745 174.15152 1105 ft 109 kts 73°
2026-04-22 01:47 -39.01338 174.15978 605 ft 105 kts 72°
2026-04-22 01:47 -39.01114 174.16819 225 ft 95 kts 66°
2026-04-22 01:47 -39.00878 174.17486 107 ft 60 kts 66°
2026-04-22 01:47 -39.00798 174.17717 106 ft 0 kts 66°